Temperature
19 19 19 19 18 18 20 20 20 20 20 20 20 19 19 18 18 18 18 18 18 18 18 18 18 18 18 18 18 18 18 18 18 19 19 19 19 19 19 19 19 19 19 19 19 19 19 19 18
19 19 19 18 18 19 20 20 20 20 20 20 19 19 18 18 18 18 18 18 18 18 18 18 18 18 18 18 18 18 18 18 18 18 18 18 18 18 18 19 19 19 19 19 19 19 19 18 18
19 19 19 17 19 19 20 20 20 20 20 20 19 18 18 18 18 18 18 18 18 18 18 18 18 18 18 18 18 18 18 18 18 18 18 18 18 18 18 18 18 18 18 18 18 19 18 18 18
19 19 18 18 20 20 20 20 20 20 20 19 18 18 18 18 18 18 18 18 18 18 18 18 18 18 18 18 17 17 17 17 17 17 17 18 18 18 18 18 18 18 18 18 18 18 18 18 18
20 19 18 19 20 20 19 20 20 20 20 19 18 18 18 18 18 18 18 18 18 18 18 18 17 17 17 17 17 17 17 17 17 17 17 17 17 17 17 17 18 18 18 18 18 18 18 18 18
20 18 18 19 20 20 20 20 20 19 19 19 18 18 18 18 18 18 18 18 18 18 17 17 17 17 17 17 17 17 17 17 17 17 17 17 17 17 17 17 17 18 18 18 18 18 18 18 18
19 18 19 20 19 20 20 20 20 19 19 19 19 18 18 18 18 18 18 18 18 17 17 17 17 17 17 17 17 16 16 16 16 16 16 16 17 17 17 17 17 17 17 17 18 18 18 18 18
20 18 19 19 19 20 21 20 20 20 19 19 19 18 18 18 18 18 18 17 17 17 17 17 17 17 16 16 16 16 16 16 16 16 16 16 16 16 17 17 17 17 17 17 17 17 17 18 18
20 18 19 19 19 20 21 20 20 20 20 19 19 19 19 19 18 18 18 17 17 17 17 17 17 16 16 16 16 16 16 15 15 15 16 16 16 16 16 16 16 17 17 17 17 17 17 17 17
19 18 20 20 20 20 20 20 20 20 19 19 19 19 19 19 18 18 18 18 17 17 17 17 16 16 16 16 16 15 15 15 15 15 15 15 15 15 16 16 16 16 16 16 17 17 17 17 17
19 19 20 20 21 21 20 20 20 19 18 19 19 19 19 19 18 18 18 18 18 17 17 16 16 16 16 15 15 15 15 15 15 15 15 15 15 15 15 15 15 16 16 16 16 17 17 17 17
19 19 20 21 21 21 21 20 20 20 20 21 20 20 19 19 19 18 18 18 17 17 17 16 16 16 15 15 15 15 15 14 14 14 14 14 15 15 15 15 15 15 15 16 16 16 16 17 17
19 20 20 21 21 21 20 20 20 20 21 20 20 20 19 19 19 18 18 18 17 17 16 16 16 15 15 15 15 15 14 14 14 14 14 14 14 14 14 15 15 15 15 15 16 16 16 16 16
19 20 20 20 20 20 20 20 20 20 20 20 20 19 19 19 19 18 18 18 17 17 16 16 15 15 15 15 14 14 14 14 14 14 14 14 14 14 14 14 14 15 15 15 15 15 16 16 16
20 19 20 20 20 20 20 19 19 21 20 20 19 19 19 19 19 18 18 17 17 17 16 15 15 15 15 14 14 14 14 14 14 13 13 13 13 13 14 14 14 14 14 14 15 15 15 16 16
19 19 19 20 20 20 20 19 20 20 20 19 19 19 19 19 18 18 18 17 17 16 16 15 15 15 14 14 14 14 14 13 13 13 13 13 13 13 13 13 14 14 14 14 14 15 15 15 15
19 19 19 19 20 19 19 19 19 20 19 19 19 19 19 19 18 18 17 17 17 16 15 15 15 14 14 14 14 14 13 13 13 13 13 13 13 13 13 13 13 13 14 14 14 14 15 15 15
19 18 19 19 20 19 18 18 18 19 19 19 19 19 19 18 18 18 17 17 16 16 15 15 14 14 14 14 13 13 13 13 13 13 13 13 13 13 13 13 13 13 13 13 14 14 14 14 15
19 19 19 20 20 19 18 18 18 18 18 18 18 18 18 18 18 18 17 17 16 16 15 15 14 14 14 14 13 13 13 13 13 13 13 13 13 13 13 13 13 13 13 13 13 13 14 14 14
19 19 19 20 20 19 18 18 18 17 17 18 18 18 19 18 18 18 17 16 16 16 15 14 14 14 13 13 13 13 13 13 13 13 13 13 12 12 12 12 12 12 12 13 13 13 13 14 14
19 19 20 20 20 19 19 19 18 18 18 18 18 19 19 19 18 18 17 16 16 15 15 14 14 13 13 13 13 13 13 13 13 13 12 12 12 12 12 12 12 12 12 12 13 13 13 13 14
19 20 20 20 19 18 19 17 18 17 17 17 17 18 18 19 18 18 17 16 16 15 15 14 14 13 13 13 13 13 13 13 12 12 12 12 12 12 12 12 12 12 12 12 13 13 13 13 13
20 20 20 19 18 18 18 17 17 17 17 17 17 18 18 19 18 18 17 17 16 15 14 14 14 13 13 13 13 13 12 12 12 12 12 12 12 12 12 12 12 12 12 12 12 12 13 13 13
19 18 17 16 16 17 18 17 17 16 17 17 17 18 19 19 18 18 17 16 16 15 14 14 14 13 13 13 13 13 12 12 12 12 12 12 12 12 12 12 12 12 12 12 12 12 12 13 13
19 18 17 18 16 17 17 17 16 17 17 17 17 18 19 19 18 18 17 16 16 15 15 14 14 13 13 13 13 13 12 12 12 12 12 12 12 12 12 12 12 12 12 12 12 12 12 13 13
19 18 18 18 17 16 17 17 17 18 18 18 19 19 19 19 18 18 17 17 16 15 15 14 14 14 13 13 13 13 13 12 12 12 12 12 12 12 12 12 12 12 12 12 12 12 12 12 13
18 17 17 16 17 17 16 17 17 18 18 18 18 18 19 19 19 18 17 17 16 15 15 14 14 14 13 13 13 13 13 13 12 12 12 12 12 12 12 12 12 12 12 12 12 12 12 12 12
18 15 15 16 17 17 17 17 17 18 18 17 16 17 19 19 19 18 17 17 16 16 15 15 14 14 14 13 13 13 13 13 12 12 12 12 12 12 12 12 12 12 12 12 12 12 12 12 12
18 17 15 14 15 16 17 17 17 17 17 17 17 19 20 19 19 18 18 17 16 16 15 15 14 14 14 13 13 13 13 13 13 12 12 12 12 12 12 12 12 12 12 12 12 12 12 12 12
20 18 16 17 16 14 15 16 17 17 17 17 18 20 20 20 19 19 18 17 16 16 15 15 15 14 14 14 13 13 13 13 13 13 13 12 12 12 12 12 12 12 12 12 12 12 12 12 12
Wind_Speed
7 7 3 3 3 3 1 3 1 1 2 3 5 6 6 5 2 2 1 1 4 4 5 5 6 5 4 3 3 3 2 3 3 4 4 5 5 5 4 4 4 4 3 3 2 1 1 1 1
7 4 3 3 2 1 2 2 2 1 4 3 5 5 6 4 2 2 1 2 4 4 4 4 4 3 2 2 2 2 3 3 3 4 5 6 6 6 6 6 6 5 5 4 3 3 2 1 0
6 3 3 3 1 2 1 1 1 3 4 2 3 4 3 2 1 1 1 4 4 3 3 2 3 2 1 1 2 3 3 4 4 5 5 6 6 7 7 7 7 7 7 6 6 5 4 3 2
4 3 3 2 1 2 2 1 2 3 3 4 3 4 2 2 1 2 4 6 5 2 2 1 2 1 1 2 2 3 4 5 5 6 6 7 7 7 7 8 8 8 8 8 7 7 6 5 4
3 3 2 1 2 2 1 1 1 2 3 3 3 4 2 3 3 5 6 5 5 2 2 1 1 1 0 2 3 3 4 5 5 6 7 7 8 8 8 8 9 9 9 9 9 8 8 7 5
3 3 2 1 2 1 1 0 2 3 3 3 3 4 1 1 3 4 5 4 4 3 2 2 2 2 2 2 3 4 4 5 6 7 7 7 8 8 8 9 9 9 10 9 9 9 9 8 7
3 3 2 2 1 1 1 2 3 4 3 3 4 5 1 0 3 5 5 4 3 2 2 2 3 4 4 4 4 5 6 6 6 7 7 7 8 7 8 9 9 9 10 10 9 9 9 9 8
3 3 1 1 3 3 2 2 3 4 3 3 4 6 4 4 4 5 5 4 3 2 1 2 3 4 5 6 6 6 6 6 6 6 6 6 7 7 8 8 9 9 9 9 9 9 10 10 9
3 3 2 4 5 3 3 3 2 2 4 2 2 3 4 7 7 6 4 2 1 1 1 2 3 3 4 4 5 6 6 6 7 7 7 7 6 7 7 8 8 8 9 8 8 9 10 10 9
3 3 5 3 5 4 4 4 4 4 3 1 2 3 5 7 7 7 5 3 2 1 1 1 2 2 3 4 4 5 5 6 6 6 6 6 6 5 5 7 8 8 8 8 7 8 9 8 6
4 4 3 2 3 5 5 4 3 6 4 6 7 8 6 6 6 7 5 4 3 2 1 1 1 2 2 2 3 4 5 5 5 5 5 5 4 4 5 5 6 7 7 5 5 5 5 4 4
3 2 2 2 3 4 5 5 4 6 7 7 9 9 7 8 8 7 7 5 3 2 2 1 1 2 2 2 2 2 3 3 3 5 5 3 2 2 3 2 4 4 4 3 3 2 3 4 4
2 2 1 1 3 4 4 4 4 5 3 6 8 7 9 8 7 5 4 3 3 2 1 1 1 2 2 2 2 2 2 2 3 4 4 3 2 2 2 2 3 3 3 2 2 2 2 3 3
2 1 1 1 2 2 4 1 2 5 5 7 8 8 8 8 7 5 4 4 3 2 1 1 1 2 2 2 2 2 2 3 3 3 4 4 2 2 2 3 3 2 3 3 2 3 2 2 2
1 2 2 0 1 1 4 2 6 5 7 8 8 8 7 6 6 6 6 5 4 2 1 1 1 1 2 2 2 2 3 3 2 3 5 4 3 2 2 2 3 3 3 3 2 2 1 2 2
3 3 2 3 3 3 4 6 6 6 9 8 8 7 6 5 5 5 5 4 3 2 1 2 1 1 2 2 3 2 3 3 3 4 5 5 4 3 2 2 3 3 3 1 1 1 1 1 1
3 1 3 4 4 4 5 7 4 6 9 9 8 7 6 5 4 4 4 4 3 2 1 1 2 2 3 3 3 3 3 3 3 4 4 5 5 3 2 2 3 3 2 1 2 1 1 1 1
4 3 4 5 3 5 5 7 4 5 9 9 8 7 6 7 6 4 3 3 2 1 0 1 2 3 3 3 3 3 4 3 3 3 4 5 4 4 2 2 2 2 1 2 1 1 0 1 1
5 5 5 5 4 6 7 8 7 5 7 8 8 7 7 7 4 3 3 3 2 1 0 1 2 3 2 2 2 3 3 4 4 3 5 5 5 4 2 2 2 2 1 2 2 1 0 1 0
4 4 5 4 2 5 4 6 5 5 7 8 9 9 8 6 4 4 4 3 2 2 2 2 3 3 2 2 2 2 3 3 3 4 5 5 5 5 2 2 2 2 2 1 1 1 0 0 1
4 6 5 3 2 2 2 6 4 2 2 3 5 6 7 8 8 6 5 4 3 3 3 3 3 3 3 3 2 2 2 3 4 4 5 5 6 5 3 2 2 1 1 1 2 2 2 1 0
5 6 5 3 3 2 1 3 6 3 3 4 5 6 7 7 7 6 6 5 5 5 3 3 3 3 3 2 2 2 2 2 3 3 4 6 5 4 3 2 2 1 1 1 2 1 1 2 1
4 2 3 2 4 1 1 2 8 3 4 7 7 8 8 8 8 8 8 7 5 4 3 3 3 3 3 2 2 2 2 2 3 4 5 5 5 4 4 3 2 2 1 1 1 1 1 1 2
5 6 6 6 5 1 3 4 7 5 7 5 6 8 8 8 8 7 5 4 4 3 3 2 2 3 3 2 2 2 3 4 4 5 5 5 4 4 5 4 3 2 1 1 1 1 1 2 2
5 5 4 4 3 5 3 3 8 6 7 7 7 9 8 8 8 7 7 6 5 5 4 3 3 4 3 3 3 3 3 3 3 4 4 4 4 4 5 4 3 2 2 2 1 0 1 1 2
5 7 6 4 4 5 2 5 7 6 4 4 5 6 7 8 7 8 8 8 6 6 5 4 4 4 4 3 4 3 3 2 3 3 3 4 3 4 5 5 4 3 2 2 1 0 1 1 2
6 3 5 6 2 1 5 7 8 2 0 1 3 5 8 8 8 8 7 7 7 6 6 5 4 4 4 3 3 3 3 3 3 3 3 3 4 4 4 4 4 3 3 2 1 0 0 0 1
5 8 6 5 4 2 6 5 5 7 7 5 5 7 8 7 7 7 7 7 7 6 5 4 4 4 4 3 3 2 3 3 3 3 4 4 4 4 5 5 4 3 3 3 1 0 0 0 0
5 5 6 5 5 5 3 7 7 8 8 9 9 9 9 9 9 8 7 7 6 5 4 4 4 3 3 3 3 3 3 3 3 3 4 4 4 4 4 4 4 3 3 2 2 1 1 0 0
5 7 7 5 4 5 4 8 7 7 8 8 8 8 7 8 7 7 6 5 5 5 5 5 4 4 4 3 2 3 3 3 3 4 4 4 4 4 4 4 3 3 3 2 2 2 1 1 0
Wind_Direction
141 112 92 60 51 46 314 303 315 329 71 49 53 71 85 79 86 128 300 60 123 138 161 167 169 169 172 177 193 216 222 217 219 219 217 213 211 206 202 208 216 219 211 200 199 198 146 123 82
124 109 72 62 73 60 295 313 341 3 128 117 55 60 72 72 62 82 30 81 110 132 143 157 175 176 188 210 232 248 255 252 250 246 241 238 235 231 227 228 231 233 228 223 224 226 226 207 216
117 74 82 79 105 192 242 347 26 62 99 88 72 51 74 75 75 109 153 120 105 108 120 146 165 177 195 248 277 287 289 283 276 269 264 258 254 251 244 245 245 244 240 234 233 235 234 230 239
111 61 61 64 287 251 230 215 156 120 85 63 91 72 53 24 99 145 130 125 117 102 111 148 160 177 227 263 283 297 298 298 292 284 278 272 267 264 260 257 256 256 250 245 241 237 237 237 241
72 87 65 15 296 303 271 216 158 115 80 64 89 99 56 13 79 109 118 123 125 123 97 84 114 123 214 269 286 292 300 307 308 305 298 290 284 277 271 265 260 259 256 252 248 242 239 241 244
79 84 93 219 276 313 320 329 111 93 95 97 107 119 114 57 109 121 121 120 120 120 81 43 27 14 353 328 314 309 314 316 317 316 316 309 303 296 288 278 271 266 261 257 254 248 243 241 243
122 120 172 195 222 264 203 125 123 120 121 149 138 126 154 136 157 130 116 108 99 87 63 19 4 356 349 342 332 327 327 325 323 322 319 317 313 308 303 296 286 274 267 262 259 255 251 248 246
137 117 127 192 199 228 168 126 125 122 139 127 131 145 184 196 153 121 108 100 93 67 36 10 5 359 345 338 334 335 334 335 333 329 325 326 324 319 312 307 302 291 276 268 265 263 258 255 251
103 91 205 216 196 211 160 128 91 77 104 90 125 163 168 140 124 113 103 74 67 47 0 3 4 358 347 337 341 343 339 342 344 342 339 340 340 334 322 315 311 308 299 283 274 272 265 260 255
118 159 224 217 190 173 153 148 148 110 100 99 76 89 115 124 134 142 153 166 187 236 309 353 357 353 356 354 353 350 344 343 344 340 338 340 337 331 327 326 320 314 311 304 291 286 276 261 250
164 194 232 242 187 150 144 146 140 136 191 196 178 166 150 140 148 163 178 187 202 222 282 319 339 346 352 344 346 347 344 343 342 339 336 334 336 334 336 336 330 326 320 313 305 299 288 260 230
172 234 218 217 163 148 155 150 158 192 214 190 173 163 158 160 172 181 186 194 193 188 237 287 342 345 339 345 342 340 342 341 336 330 334 340 339 331 330 332 327 326 318 313 303 288 278 261 234
180 223 215 201 158 145 141 165 189 224 203 147 148 152 167 176 186 193 192 189 179 187 243 292 351 351 339 346 335 353 336 335 327 327 330 331 316 314 311 313 322 320 319 312 301 288 274 257 240
183 130 26 47 116 137 149 179 191 231 151 145 155 173 183 185 185 179 183 189 193 211 251 301 334 348 352 345 328 316 330 334 332 324 322 315 295 286 299 306 305 303 305 294 281 275 268 258 237
106 71 14 299 142 155 124 255 231 205 151 163 175 186 191 193 187 189 192 190 196 206 239 288 277 4 352 335 328 333 329 333 324 315 315 306 293 285 280 293 298 295 301 298 298 292 272 261 247
67 64 340 279 178 174 155 254 252 174 164 183 191 196 197 201 202 205 197 188 182 177 217 281 330 359 340 338 329 324 328 329 317 313 314 310 305 299 290 287 292 300 308 298 288 278 276 272 275
45 139 249 278 196 160 181 245 276 170 176 194 200 202 199 204 211 213 201 188 171 169 205 283 325 332 331 335 334 328 328 323 319 321 317 312 310 305 290 279 288 309 313 312 297 272 224 242 273
201 212 238 247 216 166 205 249 263 190 191 203 205 202 199 203 214 204 189 177 152 141 235 314 329 331 336 340 341 337 336 329 327 324 321 321 316 308 294 276 291 306 315 318 311 295 279 237 250
173 190 236 247 197 177 221 253 263 212 202 210 210 205 208 214 217 187 176 164 138 136 286 303 319 322 344 346 335 329 322 319 325 322 329 331 328 319 292 289 297 292 271 271 283 271 269 288 242
172 210 252 278 167 184 243 273 274 217 211 210 206 205 204 202 194 189 186 178 184 216 244 274 292 306 312 299 285 271 282 294 294 312 331 340 337 331 316 293 287 285 276 284 271 221 208 256 145
196 203 222 232 54 50 7 318 306 295 241 209 197 197 196 195 196 198 195 205 212 233 239 255 273 293 308 322 333 339 343 335 340 340 338 333 334 333 326 313 298 293 272 265 252 215 179 193 281
225 224 203 170 106 308 67 289 292 298 291 238 213 195 198 197 191 195 199 211 222 235 243 254 271 291 308 335 354 352 342 324 300 302 308 319 332 335 334 326 321 310 293 277 262 214 199 162 171
198 69 115 113 133 15 20 180 287 316 266 251 228 210 204 199 193 199 205 214 226 232 236 249 274 293 310 327 338 342 322 297 303 312 326 333 333 335 337 332 329 330 315 295 286 263 206 180 176
122 74 59 53 75 325 243 180 278 243 231 245 223 207 202 198 198 206 212 212 231 235 242 252 274 288 307 323 330 323 313 317 327 330 336 335 331 332 340 335 334 328 318 295 281 248 207 206 183
101 96 39 5 10 258 268 202 251 256 243 228 218 208 199 193 192 201 207 212 225 234 238 245 261 280 298 312 313 307 303 307 306 311 320 325 328 325 329 335 329 321 310 296 283 245 233 201 179
151 140 155 197 228 277 317 241 258 265 274 236 206 189 185 192 199 207 212 214 223 234 235 237 250 269 290 298 302 308 311 303 297 300 301 307 305 304 316 327 327 327 323 324 333 303 251 199 184
131 153 155 132 153 298 290 290 304 253 294 143 162 173 196 204 207 213 217 217 222 231 232 228 239 261 277 284 298 308 314 311 307 308 308 309 309 314 325 335 340 341 341 343 356 344 263 186 186
131 141 106 115 140 273 301 288 258 252 239 227 213 214 218 213 213 217 218 219 222 226 233 231 232 245 261 275 287 300 306 311 313 320 324 324 323 328 334 340 341 345 350 353 7 341 314 137 185
118 101 102 106 142 154 265 277 231 227 220 217 224 222 216 211 211 214 218 219 218 222 225 231 239 248 263 269 281 305 311 319 328 328 321 324 328 332 335 334 339 342 342 343 0 349 1 39 354
176 164 148 149 192 167 182 268 267 243 235 219 226 228 218 212 209 208 209 205 208 219 224 229 237 241 246 254 275 296 312 324 330 326 324 331 331 331 330 336 342 338 336 334 332 325 341 325 292
Height
1516 1516 1517 1518 1521 1526 1526 1520 1516 1515 1515 1516 1515 1515 1517 1520 1523 1528 1524 1522 1523 1524 1525 1526 1527 1528 1529 1529 1530 1530 1530 1530 1530 1530 1530 1530 1530 1530 1530 1530 1530 1530 1530 1530 1529 1529 1529 1529 1529
1516 1516 1519 1519 1525 1532 1527 1518 1517 1515 1515 1516 1517 1517 1518 1520 1521 1522 1522 1523 1523 1525 1526 1527 1527 1528 1529 1529 1529 1529 1529 1529 1529 1529 1529 1529 1529 1529 1529 1529 1529 1529 1529 1529 1529 1529 1529 1528 1528
1516 1517 1519 1521 1526 1530 1525 1518 1516 1516 1516 1517 1518 1519 1520 1522 1522 1522 1523 1523 1524 1525 1526 1527 1527 1528 1528 1528 1528 1528 1528 1528 1528 1528 1528 1528 1527 1527 1527 1527 1527 1527 1528 1528 1528 1528 1528 1528 1528
1517 1519 1520 1524 1525 1521 1519 1517 1516 1516 1517 1518 1519 1521 1522 1523 1523 1524 1524 1524 1525 1526 1527 1527 1528 1528 1528 1528 1527 1527 1527 1527 1527 1526 1526 1526 1526 1526 1526 1526 1526 1526 1526 1526 1526 1527 1527 1527 1527
1517 1518 1523 1526 1523 1518 1516 1516 1515 1516 1517 1519 1519 1521 1523 1524 1524 1524 1525 1525 1526 1527 1527 1527 1528 1527 1527 1527 1526 1526 1526 1526 1525 1525 1524 1524 1524 1524 1524 1524 1524 1524 1524 1524 1525 1525 1525 1526 1526
1518 1519 1527 1529 1523 1518 1517 1517 1516 1517 1518 1520 1520 1522 1524 1525 1525 1526 1526 1527 1527 1527 1528 1527 1527 1527 1526 1526 1525 1525 1524 1523 1523 1522 1522 1522 1521 1521 1522 1522 1522 1522 1522 1522 1523 1523 1524 1524 1525
1518 1520 1525 1524 1524 1520 1517 1517 1517 1518 1519 1520 1520 1522 1524 1525 1525 1526 1527 1527 1528 1528 1528 1527 1527 1526 1525 1525 1524 1523 1522 1521 1521 1520 1519 1519 1519 1519 1519 1519 1519 1519 1520 1520 1521 1521 1522 1523 1523
1515 1519 1522 1524 1523 1521 1517 1517 1517 1518 1519 1520 1521 1522 1523 1525 1525 1526 1527 1527 1528 1528 1527 1527 1526 1525 1524 1524 1523 1522 1521 1520 1519 1518 1517 1517 1516 1516 1516 1516 1516 1517 1517 1518 1518 1519 1519 1520 1521
1515 1522 1525 1521 1521 1518 1516 1517 1518 1518 1519 1520 1520 1521 1522 1524 1525 1526 1527 1527 1527 1527 1527 1526 1525 1524 1523 1522 1521 1520 1519 1518 1517 1516 1515 1515 1514 1514 1514 1514 1514 1514 1514 1515 1515 1516 1517 1518 1519
1514 1522 1518 1514 1513 1513 1514 1515 1517 1519 1520 1520 1521 1521 1522 1524 1525 1525 1526 1527 1527 1527 1526 1526 1525 1524 1522 1521 1520 1519 1517 1516 1515 1514 1513 1513 1512 1511 1511 1511 1511 1511 1512 1512 1513 1513 1514 1515 1517
1512 1515 1512 1511 1511 1512 1514 1515 1516 1517 1519 1519 1519 1520 1522 1523 1524 1525 1526 1526 1526 1526 1526 1525 1524 1523 1521 1520 1519 1517 1516 1515 1513 1512 1511 1510 1510 1509 1509 1508 1508 1509 1509 1509 1510 1511 1511 1513 1514
1511 1511 1511 1510 1511 1512 1513 1514 1516 1516 1516 1517 1518 1520 1521 1523 1524 1525 1525 1526 1526 1525 1525 1524 1523 1522 1521 1519 1518 1516 1514 1513 1512 1510 1509 1508 1507 1507 1506 1506 1506 1506 1506 1506 1507 1508 1509 1510 1511
1510 1510 1510 1510 1510 1511 1513 1514 1514 1514 1515 1516 1518 1520 1521 1522 1523 1524 1525 1526 1526 1525 1524 1523 1522 1521 1520 1518 1516 1515 1513 1511 1510 1508 1507 1506 1505 1505 1504 1503 1503 1503 1503 1504 1504 1505 1506 1507 1508
1509 1509 1510 1510 1510 1512 1513 1514 1515 1513 1514 1516 1517 1519 1520 1522 1523 1524 1525 1525 1525 1524 1523 1523 1521 1520 1518 1517 1515 1513 1512 1510 1508 1507 1505 1504 1503 1503 1502 1501 1501 1500 1501 1501 1502 1502 1503 1504 1506
1509 1510 1511 1511 1511 1512 1514 1516 1513 1511 1514 1515 1517 1518 1520 1521 1523 1524 1524 1525 1524 1524 1523 1522 1520 1519 1517 1515 1514 1512 1510 1508 1507 1505 1504 1503 1501 1500 1500 1499 1498 1498 1498 1498 1499 1499 1500 1501 1503
1510 1514 1518 1512 1510 1511 1516 1519 1510 1510 1512 1514 1516 1517 1519 1521 1522 1523 1524 1524 1524 1523 1522 1521 1519 1517 1516 1514 1512 1511 1509 1507 1505 1503 1502 1501 1499 1498 1497 1497 1496 1496 1496 1496 1496 1496 1497 1498 1499
1516 1521 1520 1514 1509 1510 1514 1516 1509 1509 1511 1512 1514 1516 1518 1519 1521 1522 1523 1523 1523 1522 1521 1520 1518 1517 1515 1513 1511 1509 1508 1506 1504 1502 1501 1499 1498 1497 1495 1495 1494 1494 1493 1493 1494 1494 1495 1495 1497
1520 1521 1519 1516 1509 1511 1514 1513 1509 1509 1510 1511 1512 1515 1516 1518 1519 1521 1522 1522 1522 1521 1520 1519 1518 1516 1514 1512 1510 1509 1507 1505 1503 1501 1499 1498 1496 1495 1494 1493 1492 1492 1491 1491 1491 1492 1492 1493 1494
1511 1515 1517 1512 1506 1510 1513 1512 1508 1508 1509 1510 1511 1513 1515 1516 1518 1520 1521 1521 1521 1521 1520 1518 1517 1515 1513 1511 1509 1507 1506 1504 1502 1500 1498 1497 1495 1493 1492 1491 1490 1490 1489 1489 1489 1490 1491 1491 1492
1510 1515 1515 1510 1506 1509 1512 1511 1506 1505 1506 1506 1508 1510 1512 1514 1516 1518 1519 1520 1520 1520 1519 1518 1516 1515 1513 1511 1509 1507 1505 1503 1501 1499 1497 1495 1494 1492 1491 1489 1489 1488 1488 1488 1488 1488 1489 1490 1490
1510 1512 1512 1511 1510 1510 1512 1514 1509 1505 1504 1505 1507 1508 1510 1512 1514 1516 1517 1518 1519 1519 1518 1517 1516 1514 1512 1510 1508 1506 1504 1502 1500 1498 1496 1495 1493 1491 1490 1488 1487 1486 1486 1486 1486 1486 1487 1488 1489
1511 1503 1505 1508 1516 1522 1518 1530 1513 1508 1505 1504 1505 1506 1508 1511 1513 1515 1516 1517 1518 1518 1517 1516 1515 1513 1512 1510 1508 1506 1504 1501 1499 1497 1495 1494 1492 1490 1489 1487 1486 1485 1484 1484 1484 1484 1485 1486 1487
1503 1501 1505 1509 1516 1524 1522 1529 1520 1509 1507 1503 1502 1504 1506 1509 1511 1513 1515 1516 1517 1517 1516 1515 1514 1513 1511 1510 1508 1505 1503 1501 1499 1497 1495 1493 1491 1489 1488 1486 1485 1484 1483 1483 1482 1483 1484 1485 1486
1500 1506 1512 1519 1524 1533 1523 1529 1524 1513 1505 1501 1500 1501 1504 1507 1510 1512 1514 1515 1515 1515 1515 1514 1513 1512 1511 1509 1507 1505 1503 1501 1499 1497 1495 1492 1490 1489 1487 1485 1484 1483 1482 1481 1481 1482 1482 1483 1484
1503 1516 1530 1532 1540 1536 1523 1526 1520 1503 1499 1498 1497 1499 1502 1505 1508 1510 1512 1513 1514 1514 1514 1513 1512 1511 1510 1508 1507 1505 1503 1501 1499 1496 1494 1492 1490 1488 1486 1484 1483 1482 1481 1480 1480 1480 1481 1482 1482
1504 1511 1530 1539 1542 1536 1525 1526 1511 1498 1495 1495 1496 1498 1500 1503 1506 1508 1510 1511 1512 1513 1513 1512 1511 1510 1509 1508 1506 1505 1503 1501 1499 1497 1494 1492 1490 1488 1486 1484 1482 1481 1480 1479 1479 1479 1479 1480 1480
1506 1512 1513 1528 1532 1536 1530 1519 1504 1495 1495 1495 1495 1497 1499 1501 1504 1506 1508 1510 1511 1511 1511 1511 1510 1510 1508 1507 1506 1504 1502 1501 1499 1497 1495 1492 1490 1488 1486 1484 1482 1480 1479 1478 1478 1478 1478 1478 1479
1500 1509 1520 1529 1538 1541 1532 1524 1516 1499 1496 1495 1495 1496 1497 1499 1502 1504 1506 1507 1509 1510 1510 1510 1510 1509 1508 1506 1505 1504 1502 1501 1499 1497 1495 1492 1490 1488 1486 1484 1482 1480 1479 1478 1477 1477 1477 1477 1478
1504 1510 1519 1529 1531 1541 1540 1528 1500 1495 1492 1492 1492 1493 1494 1497 1499 1501 1504 1505 1507 1508 1508 1509 1508 1508 1507 1506 1505 1503 1502 1500 1499 1497 1495 1492 1490 1488 1486 1484 1482 1480 1479 1478 1477 1476 1476 1476 1476
1494 1502 1512 1522 1528 1535 1538 1526 1491 1490 1488 1489 1489 1491 1492 1495 1497 1499 1501 1503 1505 1506 1507 1507 1507 1506 1506 1505 1504 1503 1501 1500 1498 1496 1494 1492 1490 1488 1486 1484 1482 1480 1479 1477 1476 1476 1475 1475 1475